BXS1836 VABB-OOMS

Flight info

Callsign BXS1836
Flight time N/A
Altitude 34000
Route ANOL2AXEXOLU/27 EXOLU M638 KARKU W103 DOGET N571 PARAR N767 ELIGO
Aircraft A321/M-SDE3FGHIRWY/LB1

Departure

Time N/A
Airport Chhatrapati Shivaji Maharaj International Airport (VABB)

Arrival

Time 2026-05-04 14:58
Airport Muscat International Airport (OOMS)
Time Latitude Longitude Altitude Speed Heading
2026-05-04 13:09 20.70213 70.00692 34008 ft 434 kts 288°
2026-05-04 13:09 20.71156 69.97632 34008 ft 434 kts 288°
2026-05-04 13:10 20.73036 69.91512 34008 ft 434 kts 288°
2026-05-04 13:10 20.74912 69.85388 34008 ft 434 kts 288°
2026-05-04 13:11 20.76781 69.79264 34007 ft 434 kts 288°
2026-05-04 13:11 20.78647 69.73139 34009 ft 434 kts 288°
2026-05-04 13:12 20.80517 69.67010 34006 ft 434 kts 288°
2026-05-04 13:12 20.82384 69.60885 34009 ft 434 kts 288°
2026-05-04 13:13 20.84247 69.54756 34009 ft 434 kts 288°
2026-05-04 13:13 20.86107 69.48622 34009 ft 434 kts 288°
2026-05-04 13:14 20.87955 69.42529 34009 ft 434 kts 288°
2026-05-04 13:14 20.89812 69.36396 34009 ft 433 kts 288°
2026-05-04 13:15 20.91664 69.30259 34007 ft 433 kts 288°
2026-05-04 13:15 20.93518 69.24124 34009 ft 433 kts 288°
2026-05-04 13:16 20.95067 69.18984 34009 ft 433 kts 288°
2026-05-04 13:16 20.96894 69.12841 34009 ft 433 kts 285°
2026-05-04 13:17 20.97695 69.06478 34009 ft 433 kts 273°
2026-05-04 13:17 20.98034 69.00046 34007 ft 433 kts 273°
2026-05-04 13:18 20.98388 68.93611 34006 ft 433 kts 273°
2026-05-04 13:18 20.98752 68.87175 34007 ft 433 kts 273°
2026-05-04 13:19 20.99100 68.80737 34007 ft 433 kts 273°
2026-05-04 13:19 20.99438 68.74294 34008 ft 433 kts 273°
2026-05-04 13:20 20.99773 68.67906 34009 ft 433 kts 273°
2026-05-04 13:20 21.00104 68.61466 34009 ft 433 kts 273°
2026-05-04 13:21 21.00439 68.55020 34009 ft 433 kts 273°
2026-05-04 13:21 21.00772 68.48587 34007 ft 433 kts 273°
2026-05-04 13:22 21.01096 68.42147 34010 ft 433 kts 273°
2026-05-04 13:22 21.01421 68.35710 34010 ft 433 kts 273°
2026-05-04 13:23 21.01751 68.29272 34010 ft 433 kts 273°
2026-05-04 13:23 21.02076 68.22834 34010 ft 433 kts 273°
2026-05-04 13:24 21.02405 68.16398 34010 ft 433 kts 273°
2026-05-04 13:24 21.02730 68.09957 34010 ft 433 kts 273°
2026-05-04 13:25 21.03190 68.00299 34010 ft 433 kts 273°
2026-05-04 13:25 21.03498 67.93859 34010 ft 433 kts 273°
2026-05-04 13:26 21.03816 67.87423 34010 ft 433 kts 273°
2026-05-04 13:26 21.04130 67.80987 34010 ft 433 kts 273°
2026-05-04 13:27 21.04433 67.74551 34010 ft 433 kts 273°
2026-05-04 13:27 21.04728 67.68112 34010 ft 433 kts 272°
2026-05-04 13:28 21.05022 67.61681 34010 ft 433 kts 273°
2026-05-04 13:28 21.05323 67.55241 34007 ft 433 kts 272°
2026-05-04 13:29 21.05614 67.48802 34010 ft 433 kts 272°
2026-05-04 13:29 21.05907 67.42364 34010 ft 433 kts 273°
2026-05-04 13:30 21.06206 67.35927 34010 ft 433 kts 272°
2026-05-04 13:30 21.06494 67.29491 34009 ft 433 kts 272°
2026-05-04 13:31 21.06778 67.23052 34009 ft 433 kts 272°
2026-05-04 13:31 21.07058 67.16615 34009 ft 433 kts 272°
2026-05-04 13:32 21.07337 67.10182 34009 ft 433 kts 272°
2026-05-04 13:32 21.07616 67.03748 34009 ft 433 kts 272°
2026-05-04 13:33 21.07884 66.97310 34009 ft 433 kts 272°
2026-05-04 13:33 21.08153 66.90873 34009 ft 433 kts 272°
2026-05-04 13:34 21.08427 66.84436 34009 ft 433 kts 272°
2026-05-04 13:34 21.08698 66.78002 34009 ft 433 kts 272°
2026-05-04 13:35 21.09095 66.68349 34007 ft 433 kts 272°
2026-05-04 13:36 21.09351 66.61916 34008 ft 433 kts 272°
2026-05-04 13:36 21.09613 66.55479 34008 ft 433 kts 272°
2026-05-04 13:37 21.09864 66.49054 34008 ft 432 kts 272°
2026-05-04 13:37 21.10115 66.42616 34008 ft 432 kts 272°
2026-05-04 13:38 21.10374 66.36188 34008 ft 432 kts 272°
2026-05-04 13:38 21.10630 66.29747 34008 ft 432 kts 272°
2026-05-04 13:39 21.10871 66.23313 34008 ft 432 kts 272°
2026-05-04 13:39 21.11113 66.16879 34008 ft 432 kts 272°
2026-05-04 13:40 21.11363 66.10443 34007 ft 432 kts 272°
2026-05-04 13:40 21.11607 66.04011 34007 ft 432 kts 274°
2026-05-04 13:41 21.12905 65.97802 34002 ft 432 kts 292°
2026-05-04 13:41 21.15547 65.92034 34001 ft 432 kts 297°
2026-05-04 13:42 21.19587 65.83403 34001 ft 432 kts 296°
2026-05-04 13:42 21.22286 65.77644 34000 ft 432 kts 297°
2026-05-04 13:43 21.24996 65.71899 34003 ft 432 kts 297°
2026-05-04 13:43 21.27703 65.66144 34002 ft 432 kts 297°
2026-05-04 13:44 21.30406 65.60386 34005 ft 432 kts 296°
2026-05-04 13:44 21.33103 65.54623 34004 ft 432 kts 296°
2026-05-04 13:45 21.35794 65.48852 34006 ft 432 kts 296°
2026-05-04 13:45 21.38481 65.43086 34006 ft 432 kts 296°
2026-05-04 13:46 21.41170 65.37320 34006 ft 432 kts 296°
2026-05-04 13:46 21.43867 65.31554 34006 ft 432 kts 296°
2026-05-04 13:47 21.46559 65.25784 34005 ft 432 kts 296°
2026-05-04 13:47 21.49245 65.20011 34005 ft 432 kts 296°
2026-05-04 13:48 21.51930 65.14237 34006 ft 432 kts 296°
2026-05-04 13:48 21.54611 65.08462 34006 ft 432 kts 296°
2026-05-04 13:49 21.57288 65.02688 34006 ft 432 kts 296°
2026-05-04 13:49 21.59961 64.96904 34006 ft 432 kts 296°
2026-05-04 13:50 21.62636 64.91120 34006 ft 432 kts 296°
2026-05-04 13:50 21.65288 64.85372 34006 ft 432 kts 296°
2026-05-04 13:51 21.67953 64.79583 34006 ft 432 kts 296°
2026-05-04 13:51 21.70626 64.73795 34005 ft 432 kts 296°
2026-05-04 13:52 21.74639 64.65113 34006 ft 432 kts 296°
2026-05-04 13:53 21.77305 64.59322 34004 ft 432 kts 296°
2026-05-04 13:53 21.79958 64.53523 34006 ft 432 kts 296°
2026-05-04 13:54 21.83944 64.44827 34005 ft 432 kts 296°
2026-05-04 13:55 21.87933 64.36133 34005 ft 432 kts 296°
2026-05-04 13:55 21.91915 64.27429 34005 ft 432 kts 296°
2026-05-04 13:56 21.94562 64.21623 34003 ft 432 kts 296°
2026-05-04 13:57 21.98520 64.12906 34003 ft 432 kts 296°
2026-05-04 13:58 22.03810 64.01288 34005 ft 432 kts 296°
2026-05-04 13:58 22.07773 63.92560 34005 ft 432 kts 296°
2026-05-04 13:59 22.10409 63.86742 34007 ft 432 kts 296°
2026-05-04 14:00 22.14368 63.78007 34010 ft 432 kts 296°
2026-05-04 14:00 22.17869 63.70253 34008 ft 432 kts 296°
2026-05-04 14:01 22.20501 63.64429 34009 ft 432 kts 296°
2026-05-04 14:02 22.24438 63.55693 34005 ft 431 kts 296°
2026-05-04 14:02 22.27053 63.49864 34003 ft 431 kts 296°
2026-05-04 14:03 22.29667 63.44031 34002 ft 431 kts 296°
2026-05-04 14:03 22.32280 63.38201 34002 ft 431 kts 296°
2026-05-04 14:04 22.36211 63.29455 33999 ft 431 kts 296°
2026-05-04 14:04 22.38832 63.23628 33999 ft 431 kts 296°
2026-05-04 14:05 22.42711 63.14956 33999 ft 431 kts 296°
2026-05-04 14:06 22.44879 63.08937 33995 ft 430 kts 285°
2026-05-04 14:06 22.46478 63.02700 33994 ft 430 kts 285°
2026-05-04 14:07 22.48092 62.96463 33994 ft 431 kts 285°
2026-05-04 14:07 22.49710 62.90231 33994 ft 431 kts 285°
2026-05-04 14:08 22.51315 62.84032 33993 ft 431 kts 285°
2026-05-04 14:08 22.52917 62.77786 33994 ft 431 kts 285°
2026-05-04 14:09 22.55315 62.68427 33996 ft 431 kts 285°
2026-05-04 14:10 22.57724 62.59046 33998 ft 431 kts 285°
2026-05-04 14:10 22.59325 62.52788 34000 ft 431 kts 285°
2026-05-04 14:11 22.60921 62.46532 34002 ft 432 kts 285°
2026-05-04 14:11 22.63314 62.37133 34007 ft 432 kts 285°
2026-05-04 14:12 22.64903 62.30864 34010 ft 432 kts 285°
2026-05-04 14:13 22.67280 62.21454 34008 ft 432 kts 285°
2026-05-04 14:13 22.68867 62.15193 34008 ft 432 kts 285°
2026-05-04 14:14 22.70453 62.08913 34011 ft 432 kts 285°
2026-05-04 14:14 22.72816 61.99503 34012 ft 432 kts 285°
2026-05-04 14:15 22.75965 61.86958 34009 ft 431 kts 285°
2026-05-04 14:16 22.78304 61.77586 34007 ft 431 kts 285°
2026-05-04 14:17 22.80657 61.68184 34004 ft 431 kts 285°
2026-05-04 14:18 22.83002 61.58770 34003 ft 431 kts 285°
2026-05-04 14:19 22.86113 61.46215 34002 ft 431 kts 285°
2026-05-04 14:19 22.87673 61.39933 34005 ft 431 kts 285°
2026-05-04 14:20 22.89227 61.33649 34006 ft 431 kts 285°
2026-05-04 14:20 22.90775 61.27362 34007 ft 431 kts 285°
2026-05-04 14:21 22.93090 61.17929 34007 ft 431 kts 285°
2026-05-04 14:21 22.94629 61.11642 34006 ft 431 kts 285°
2026-05-04 14:22 22.96163 61.05351 34005 ft 431 kts 285°
2026-05-04 14:22 22.97702 60.99065 34002 ft 431 kts 285°
2026-05-04 14:23 23.00007 60.89634 34002 ft 431 kts 285°
2026-05-04 14:24 23.01536 60.83342 34001 ft 431 kts 284°
2026-05-04 14:24 23.03062 60.77062 34000 ft 431 kts 285°
2026-05-04 14:25 23.04578 60.70813 34000 ft 431 kts 284°
2026-05-04 14:25 23.06858 60.61374 33998 ft 431 kts 284°
2026-05-04 14:26 23.08378 60.55088 33997 ft 430 kts 284°
2026-05-04 14:26 23.09903 60.48801 33997 ft 430 kts 284°
2026-05-04 14:27 23.11420 60.42511 33996 ft 430 kts 284°
2026-05-04 14:27 23.12938 60.36225 33994 ft 430 kts 284°
2026-05-04 14:28 23.14449 60.29944 33994 ft 430 kts 284°
2026-05-04 14:28 23.15955 60.23651 33994 ft 430 kts 284°
2026-05-04 14:29 23.18965 60.11069 33992 ft 430 kts 284°
2026-05-04 14:30 23.20466 60.04774 33992 ft 430 kts 284°
2026-05-04 14:31 23.22704 59.95328 33994 ft 430 kts 284°
2026-05-04 14:32 23.25678 59.82775 33993 ft 430 kts 284°
2026-05-04 14:32 23.27167 59.76470 33995 ft 430 kts 284°
2026-05-04 14:33 23.28657 59.70166 33995 ft 430 kts 284°
2026-05-04 14:33 23.30145 59.63837 32998 ft 438 kts 284°
2026-05-04 14:33 23.30899 59.60630 32475 ft 436 kts 284°
2026-05-04 14:34 23.31648 59.57447 31917 ft 433 kts 284°
2026-05-04 14:34 23.32392 59.54281 31401 ft 430 kts 284°
2026-05-04 14:34 23.33127 59.51136 30867 ft 428 kts 284°
2026-05-04 14:34 23.33855 59.48010 30355 ft 425 kts 284°
2026-05-04 14:35 23.34579 59.44906 29833 ft 422 kts 284°
2026-05-04 14:35 23.35299 59.41830 29339 ft 419 kts 284°
2026-05-04 14:35 23.36013 59.38770 28823 ft 416 kts 284°
2026-05-04 14:35 23.36720 59.35732 28325 ft 412 kts 284°
2026-05-04 14:36 23.37424 59.32718 27832 ft 409 kts 284°
2026-05-04 14:36 23.38123 59.29729 27348 ft 406 kts 284°
2026-05-04 14:36 23.38815 59.26764 26874 ft 402 kts 284°
2026-05-04 14:36 23.39499 59.23825 26396 ft 399 kts 284°
2026-05-04 14:37 23.40173 59.20914 25945 ft 395 kts 284°
2026-05-04 14:37 23.40838 59.18032 25509 ft 390 kts 284°
2026-05-04 14:37 23.41493 59.15184 25079 ft 386 kts 284°
2026-05-04 14:37 23.42116 59.12362 24664 ft 381 kts 283°
2026-05-04 14:38 23.42680 59.09566 24261 ft 377 kts 282°
2026-05-04 14:38 23.43213 59.06791 23865 ft 374 kts 282°
2026-05-04 14:38 23.43732 59.04029 23470 ft 371 kts 281°
2026-05-04 14:38 23.44248 59.01281 23075 ft 369 kts 282°
2026-05-04 14:39 23.44767 58.98559 22692 ft 367 kts 282°
2026-05-04 14:39 23.45290 58.95849 22298 ft 365 kts 282°
2026-05-04 14:39 23.45814 58.93157 21912 ft 362 kts 282°
2026-05-04 14:40 23.46512 58.87770 21146 ft 358 kts 271°
2026-05-04 14:40 23.46569 58.85066 20764 ft 356 kts 271°
2026-05-04 14:40 23.46632 58.82378 20386 ft 354 kts 271°
2026-05-04 14:40 23.46698 58.79705 20010 ft 352 kts 271°
2026-05-04 14:41 23.46763 58.77046 19637 ft 350 kts 271°
2026-05-04 14:41 23.46828 58.74400 19268 ft 349 kts 271°
2026-05-04 14:41 23.46944 58.69147 18529 ft 345 kts 271°
2026-05-04 14:42 23.46997 58.66658 18177 ft 343 kts 271°
2026-05-04 14:42 23.47049 58.64151 17827 ft 342 kts 271°
2026-05-04 14:42 23.47103 58.61571 17466 ft 340 kts 271°
2026-05-04 14:43 23.47158 58.59003 17104 ft 338 kts 271°
2026-05-04 14:43 23.47213 58.56451 16746 ft 337 kts 271°
2026-05-04 14:43 23.47268 58.53906 16391 ft 335 kts 271°
2026-05-04 14:43 23.47321 58.51366 16030 ft 333 kts 271°
2026-05-04 14:44 23.47374 58.48854 15678 ft 331 kts 271°
2026-05-04 14:44 23.47426 58.46359 15327 ft 329 kts 271°
2026-05-04 14:44 23.47476 58.43877 14979 ft 327 kts 271°
2026-05-04 14:44 23.47523 58.41405 14632 ft 326 kts 271°
2026-05-04 14:45 23.47568 58.38942 14286 ft 324 kts 271°
2026-05-04 14:45 23.47615 58.36493 13941 ft 323 kts 271°
2026-05-04 14:45 23.47662 58.34052 13600 ft 322 kts 271°
2026-05-04 14:45 23.47710 58.31625 13258 ft 319 kts 271°
2026-05-04 14:46 23.47757 58.29246 12942 ft 316 kts 271°
2026-05-04 14:46 23.47806 58.26869 12810 ft 305 kts 271°
2026-05-04 14:46 23.47853 58.24596 12601 ft 297 kts 271°
2026-05-04 14:46 23.47897 58.22388 12352 ft 293 kts 271°
2026-05-04 14:47 23.47939 58.20178 12102 ft 291 kts 271°
2026-05-04 14:47 23.47981 58.17975 11851 ft 290 kts 271°
2026-05-04 14:47 23.48023 58.15780 11605 ft 289 kts 271°
2026-05-04 14:47 23.48064 58.13595 11377 ft 289 kts 271°
2026-05-04 14:48 23.48103 58.11409 11065 ft 287 kts 271°
2026-05-04 14:48 23.48139 58.09245 10738 ft 286 kts 271°
2026-05-04 14:48 23.48176 58.07082 10402 ft 284 kts 271°
2026-05-04 14:48 23.48212 58.04935 10074 ft 283 kts 271°
2026-05-04 14:49 23.48250 58.02798 9728 ft 282 kts 271°
2026-05-04 14:49 23.48287 58.00669 9385 ft 280 kts 271°
2026-05-04 14:49 23.48325 57.98548 9044 ft 279 kts 271°
2026-05-04 14:49 23.48363 57.96437 8705 ft 278 kts 271°
2026-05-04 14:50 23.48402 57.94349 8493 ft 271 kts 271°
2026-05-04 14:50 23.48525 57.92351 8358 ft 259 kts 285°
2026-05-04 14:50 23.49345 57.90680 8203 ft 248 kts 315°
2026-05-04 14:50 23.50769 57.89714 7974 ft 241 kts 345°
2026-05-04 14:51 23.52422 57.89583 7658 ft 240 kts
2026-05-04 14:51 23.54088 57.89701 7315 ft 240 kts
2026-05-04 14:51 23.55711 57.90039 6967 ft 238 kts 27°
2026-05-04 14:51 23.56956 57.91185 6630 ft 236 kts 58°
2026-05-04 14:52 23.57474 57.92848 6336 ft 234 kts 89°
2026-05-04 14:52 23.57316 57.94032 6002 ft 249 kts 112°
2026-05-04 14:52 23.56589 57.95805 5617 ft 261 kts 108°
2026-05-04 14:52 23.56531 57.97750 5289 ft 261 kts 76°
2026-05-04 14:53 23.56959 57.99676 4942 ft 261 kts 81°
2026-05-04 14:53 23.57152 58.01640 4599 ft 260 kts 85°
2026-05-04 14:53 23.57291 58.03597 4257 ft 258 kts 85°
2026-05-04 14:53 23.57443 58.05538 3917 ft 256 kts 85°
2026-05-04 14:54 23.57602 58.07463 3579 ft 254 kts 85°
2026-05-04 14:54 23.57760 58.09380 3242 ft 252 kts 85°
2026-05-04 14:54 23.57915 58.11280 2908 ft 251 kts 85°
2026-05-04 14:54 23.58067 58.13138 2570 ft 239 kts 85°
2026-05-04 14:55 23.58206 58.14850 2297 ft 217 kts 85°
2026-05-04 14:55 23.58331 58.16385 2041 ft 190 kts 85°
2026-05-04 14:55 23.58441 58.17728 1777 ft 166 kts 85°
2026-05-04 14:55 23.58538 58.18926 1556 ft 154 kts 85°
2026-05-04 14:56 23.58631 58.20071 1357 ft 150 kts 85°
2026-05-04 14:56 23.58722 58.21192 1163 ft 148 kts 85°
2026-05-04 14:56 23.58812 58.22303 966 ft 147 kts 84°
2026-05-04 14:56 23.58909 58.23407 747 ft 146 kts 84°
2026-05-04 14:57 23.59007 58.24509 520 ft 145 kts 85°
2026-05-04 14:57 23.59079 58.25607 308 ft 145 kts 85°
2026-05-04 14:57 23.59175 58.26699 107 ft 144 kts 84°
2026-05-04 14:57 23.59257 58.27751 44 ft 129 kts 86°
2026-05-04 14:58 23.59320 58.28552 44 ft 81 kts 85°
2026-05-04 14:58 23.59355 58.28976 43 ft 37 kts 85°
2026-05-04 14:58 23.59377 58.29241 44 ft 34 kts 85°
2026-05-04 14:58 23.59397 58.29482 45 ft 31 kts 84°
2026-05-04 14:59 23.59414 58.29695 45 ft 23 kts 84°
2026-05-04 14:59 23.59427 58.29863 46 ft 22 kts 85°
2026-05-04 14:59 23.59501 58.30177 44 ft 20 kts 21°
2026-05-04 15:00 23.59604 58.30168 43 ft 15 kts 301°
2026-05-04 15:00 23.59644 58.30062 45 ft 15 kts 276°
2026-05-04 15:00 23.59637 58.29977 43 ft 10 kts 263°
2026-05-04 15:01 23.59632 58.29922 45 ft 2 kts 266°
2026-05-04 15:01 23.59631 58.29901 45 ft 5 kts 267°
2026-05-04 15:01 23.59628 58.29846 45 ft 10 kts 267°
2026-05-04 15:01 23.59621 58.29751 45 ft 15 kts 265°
2026-05-04 15:02 23.59611 58.29633 45 ft 17 kts 264°
2026-05-04 15:02 23.59599 58.29500 45 ft 19 kts 263°
2026-05-04 15:02 23.59588 58.29348 45 ft 21 kts 267°
2026-05-04 15:02 23.59576 58.29194 44 ft 20 kts 265°
2026-05-04 15:03 23.59565 58.29049 44 ft 15 kts 265°
2026-05-04 15:03 23.59566 58.28970 44 ft 11 kts 289°
2026-05-04 15:03 23.59633 58.28932 44 ft 12 kts 350°
2026-05-04 15:03 23.59720 58.28920 44 ft 13 kts 355°
2026-05-04 15:04 23.59817 58.28911 45 ft 15 kts 355°
2026-05-04 15:04 23.59883 58.28886 45 ft 10 kts 300°
2026-05-04 15:04 23.59886 58.28816 45 ft 7 kts 266°
2026-05-04 15:04 23.59886 58.28812 45 ft 0 kts 266°